Time,TemperatureF,DewpointF,PressureIn,WindDirection,WindDirectionDegrees,WindSpeedMPH,WindSpeedGustMPH,Humidity,HourlyPrecipIn,Conditions,Clouds,dailyrainin,SolarRadiationWatts/m^2,SoftwareType,DateUTC
2013-02-24 00:14:00,31.7,30.0,30.36,NE,34,0.0,-999.0,92,-99.99,,,0.00,0,weatherlink.com 1.10,2013-02-24 00:14:00,
2013-02-24 00:29:00,32.3,30.0,30.36,North,9,3.0,-999.0,92,-99.99,,,0.00,0,weatherlink.com 1.10,2013-02-24 00:29:00,
2013-02-24 00:44:00,32.4,30.0,30.35,North,355,0.0,-999.0,92,-99.99,,,0.00,0,weatherlink.com 1.10,2013-02-24 00:44:00,
2013-02-24 00:59:00,32.3,30.0,30.36,NNW,346,0.0,-999.0,92,-99.99,,,0.00,0,weatherlink.com 1.10,2013-02-24 00:59:00,
2013-02-24 01:14:00,32.3,30.0,30.36,NNW,346,1.0,-999.0,92,-99.99,,,0.00,0,weatherlink.com 1.10,2013-02-24 01:14:00,
2013-02-24 01:29:00,32.2,30.0,30.35,NNW,346,2.0,-999.0,92,-99.99,,,0.00,0,weatherlink.com 1.10,2013-02-24 01:29:00,
2013-02-24 01:44:00,32.4,31.0,30.35,NNW,346,2.0,-999.0,93,-99.99,,,0.00,0,weatherlink.com 1.10,2013-02-24 01:44:00,
2013-02-24 01:59:00,32.7,31.0,30.35,North,5,2.0,-999.0,92,-99.99,,,0.00,0,weatherlink.com 1.10,2013-02-24 01:59:00,
2013-02-24 02:14:00,32.5,31.0,30.35,North,350,1.0,-999.0,92,-99.99,,,0.00,0,weatherlink.com 1.10,2013-02-24 02:14:00,
2013-02-24 02:44:00,32.6,31.0,30.35,North,350,0.0,-999.0,93,-99.99,,,0.00,0,weatherlink.com 1.10,2013-02-24 02:44:00,
2013-02-24 02:59:00,32.6,31.0,30.35,North,350,0.0,-999.0,93,-99.99,,,0.00,0,weatherlink.com 1.10,2013-02-24 02:59:00,
2013-02-24 03:14:00,32.5,31.0,30.35,North,350,1.0,-999.0,93,-99.99,,,0.00,0,weatherlink.com 1.10,2013-02-24 03:14:00,
2013-02-24 03:29:00,32.1,30.0,30.35,North,350,0.0,-999.0,92,-99.99,,,0.00,0,weatherlink.com 1.10,2013-02-24 03:29:00,
2013-02-24 03:44:00,31.5,30.0,30.35,North,350,0.0,-999.0,92,-99.99,,,0.00,0,weatherlink.com 1.10,2013-02-24 03:44:00,
2013-02-24 03:59:00,30.7,29.0,30.35,North,350,0.0,-999.0,92,-99.99,,,0.00,0,weatherlink.com 1.10,2013-02-24 03:59:00,
2013-02-24 04:14:00,30.3,29.0,30.36,North,350,2.0,-999.0,93,-99.99,,,0.00,0,weatherlink.com 1.10,2013-02-24 04:14:00,
2013-02-24 04:29:00,30.4,29.0,30.36,North,350,0.0,-999.0,94,-99.99,,,0.00,0,weatherlink.com 1.10,2013-02-24 04:29:00,
2013-02-24 04:44:00,30.6,29.0,30.36,North,350,0.0,-999.0,94,-99.99,,,0.00,0,weatherlink.com 1.10,2013-02-24 04:44:00,
2013-02-24 04:59:00,29.7,28.0,30.36,North,350,3.0,-999.0,93,-99.99,,,0.00,0,weatherlink.com 1.10,2013-02-24 04:59:00,
2013-02-24 05:14:00,29.4,28.0,30.36,North,350,1.0,-999.0,93,-99.99,,,0.00,0,weatherlink.com 1.10,2013-02-24 05:14:00,
2013-02-24 05:29:00,28.8,27.0,30.36,North,350,0.0,-999.0,93,-99.99,,,0.00,0,weatherlink.com 1.10,2013-02-24 05:29:00,
2013-02-24 05:44:00,28.6,27.0,30.36,North,350,0.0,-999.0,94,-99.99,,,0.00,0,weatherlink.com 1.10,2013-02-24 05:44:00,
2013-02-24 05:59:00,28.0,27.0,30.36,North,350,0.0,-999.0,94,-99.99,,,0.00,0,weatherlink.com 1.10,2013-02-24 05:59:00,
2013-02-24 06:14:00,28.0,27.0,30.36,North,350,0.0,-999.0,94,-99.99,,,0.00,0,weatherlink.com 1.10,2013-02-24 06:14:00,
2013-02-24 06:29:00,28.9,28.0,30.36,North,350,0.0,-999.0,95,-99.99,,,0.00,0,weatherlink.com 1.10,2013-02-24 06:29:00,
2013-02-24 06:44:00,28.9,27.0,30.36,North,350,0.0,-999.0,94,-99.99,,,0.00,0,weatherlink.com 1.10,2013-02-24 06:44:00,
2013-02-24 06:59:00,28.4,27.0,30.36,North,350,0.0,-999.0,94,-99.99,,,0.00,0,weatherlink.com 1.10,2013-02-24 06:59:00,
2013-02-24 07:14:00,27.9,26.0,30.37,North,350,0.0,-999.0,94,-99.99,,,0.00,0,weatherlink.com 1.10,2013-02-24 07:14:00,
2013-02-24 07:29:00,27.4,26.0,30.37,North,350,0.0,-999.0,94,-99.99,,,0.00,5,weatherlink.com 1.10,2013-02-24 07:29:00,
2013-02-24 07:44:00,27.9,27.0,30.37,North,350,0.0,-999.0,95,-99.99,,,0.00,11,weatherlink.com 1.10,2013-02-24 07:44:00,
2013-02-24 07:59:00,28.3,27.0,30.38,North,350,0.0,-999.0,96,-99.99,,,0.00,19,weatherlink.com 1.10,2013-02-24 07:59:00,
2013-02-24 08:14:00,29.1,28.0,30.38,North,350,0.0,-999.0,96,-99.99,,,0.00,33,weatherlink.com 1.10,2013-02-24 08:14:00,
2013-02-24 08:29:00,29.8,29.0,30.39,North,350,0.0,-999.0,96,-99.99,,,0.00,47,weatherlink.com 1.10,2013-02-24 08:29:00,
2013-02-24 08:45:00,30.7,30.0,30.39,North,355,3.0,-999.0,96,-99.99,,,0.00,54,weatherlink.com 1.10,2013-02-24 08:45:00,
2013-02-24 09:00:00,31.6,31.0,30.39,NNW,337,3.0,-999.0,96,-99.99,,,0.00,49,weatherlink.com 1.10,2013-02-24 09:00:00,
2013-02-24 09:15:00,32.4,31.0,30.39,NE,37,3.0,-999.0,96,-99.99,,,0.00,74,weatherlink.com 1.10,2013-02-24 09:15:00,
2013-02-24 09:30:00,33.2,32.0,30.40,NNE,23,3.0,-999.0,96,-99.99,,,0.00,93,weatherlink.com 1.10,2013-02-24 09:30:00,
2013-02-24 09:45:00,33.8,33.0,30.40,NNE,23,2.0,-999.0,96,-99.99,,,0.00,90,weatherlink.com 1.10,2013-02-24 09:45:00,
2013-02-24 10:00:00,34.2,33.0,30.40,North,355,1.0,-999.0,96,-99.99,,,0.00,93,weatherlink.com 1.10,2013-02-24 10:00:00,
2013-02-24 10:15:00,34.8,34.0,30.40,NNW,345,0.0,-999.0,95,-99.99,,,0.00,100,weatherlink.com 1.10,2013-02-24 10:15:00,
2013-02-24 10:30:00,35.3,34.0,30.40,NNW,346,0.0,-999.0,95,-99.99,,,0.00,74,weatherlink.com 1.10,2013-02-24 10:30:00,
2013-02-24 10:45:00,35.7,34.0,30.41,NNW,346,0.0,-999.0,94,-99.99,,,0.00,60,weatherlink.com 1.10,2013-02-24 10:45:00,
2013-02-24 11:00:00,36.1,35.0,30.41,NNW,346,3.0,-999.0,94,-99.99,,,0.00,113,weatherlink.com 1.10,2013-02-24 11:00:00,
2013-02-24 11:15:00,37.0,35.0,30.41,NNW,345,1.0,-999.0,93,-99.99,,,0.00,158,weatherlink.com 1.10,2013-02-24 11:15:00,
2013-02-24 11:30:00,38.0,36.0,30.41,North,5,2.0,-999.0,91,-99.99,,,0.00,160,weatherlink.com 1.10,2013-02-24 11:30:00,
2013-02-24 11:45:00,38.8,35.0,30.41,NNE,28,2.0,-999.0,87,-99.99,,,0.00,105,weatherlink.com 1.10,2013-02-24 11:45:00,
2013-02-24 12:00:00,39.1,35.0,30.41,North,350,2.0,-999.0,85,-99.99,,,0.00,148,weatherlink.com 1.10,2013-02-24 12:00:00,
2013-02-24 12:15:00,39.6,35.0,30.41,NNE,17,7.0,-999.0,83,-99.99,,,0.01,181,weatherlink.com 1.10,2013-02-24 12:15:00,
2013-02-24 12:30:00,39.9,35.0,30.41,NNE,19,3.0,-999.0,82,-99.99,,,0.01,153,weatherlink.com 1.10,2013-02-24 12:30:00,
2013-02-24 12:45:00,40.4,35.0,30.40,NNW,329,2.0,-999.0,82,-99.99,,,0.01,216,weatherlink.com 1.10,2013-02-24 12:45:00,
2013-02-24 13:00:00,41.4,36.0,30.40,NE,42,3.0,-999.0,80,-99.99,,,0.01,251,weatherlink.com 1.10,2013-02-24 13:00:00,
2013-02-24 13:15:00,41.8,35.0,30.40,ENE,71,4.0,-999.0,77,-99.99,,,0.01,214,weatherlink.com 1.10,2013-02-24 13:15:00,
2013-02-24 13:30:00,41.9,36.0,30.39,North,355,0.0,-999.0,79,-99.99,,,0.01,193,weatherlink.com 1.10,2013-02-24 13:30:00,
2013-02-24 13:45:00,42.1,36.0,30.40,NNW,347,2.0,-999.0,78,-99.99,,,0.01,174,weatherlink.com 1.10,2013-02-24 13:45:00,
2013-02-24 14:00:00,41.8,35.0,30.39,North,5,1.0,-999.0,77,-99.99,,,0.01,104,weatherlink.com 1.10,2013-02-24 14:00:00,
2013-02-24 14:15:00,41.7,35.0,30.39,North,9,4.0,-999.0,77,-99.99,,,0.01,174,weatherlink.com 1.10,2013-02-24 14:15:00,
2013-02-24 14:30:00,41.7,35.0,30.39,NNE,15,3.0,-999.0,76,-99.99,,,0.01,176,weatherlink.com 1.10,2013-02-24 14:30:00,
2013-02-24 14:45:00,42.2,35.0,30.39,NNE,15,0.0,-999.0,77,-99.99,,,0.01,139,weatherlink.com 1.10,2013-02-24 14:45:00,
2013-02-24 15:00:00,42.2,35.0,30.39,NNE,15,0.0,-999.0,76,-99.99,,,0.01,116,weatherlink.com 1.10,2013-02-24 15:00:00,
2013-02-24 15:15:00,42.3,36.0,30.39,NNE,15,1.0,-999.0,77,-99.99,,,0.01,121,weatherlink.com 1.10,2013-02-24 15:15:00,
2013-02-24 15:30:00,43.2,36.0,30.38,NNE,15,2.0,-999.0,77,-99.99,,,0.01,229,weatherlink.com 1.10,2013-02-24 15:30:00,
2013-02-24 15:46:00,44.9,37.0,30.38,NNE,15,0.0,-999.0,73,-99.99,,,0.01,192,weatherlink.com 1.10,2013-02-24 15:46:00,
2013-02-24 16:01:00,44.7,35.0,30.38,NNE,15,0.0,-999.0,70,-99.99,,,0.01,158,weatherlink.com 1.10,2013-02-24 16:01:00,
2013-02-24 16:16:00,45.5,36.0,30.38,NE,34,2.0,-999.0,69,-99.99,,,0.01,98,weatherlink.com 1.10,2013-02-24 16:16:00,
2013-02-24 16:31:00,44.1,35.0,30.38,NE,34,0.0,-999.0,71,-99.99,,,0.01,30,weatherlink.com 1.10,2013-02-24 16:31:00,
2013-02-24 16:46:00,43.4,35.0,30.38,NE,34,0.0,-999.0,73,-99.99,,,0.01,62,weatherlink.com 1.10,2013-02-24 16:46:00,
2013-02-24 17:01:00,42.8,35.0,30.39,NE,34,1.0,-999.0,73,-99.99,,,0.01,49,weatherlink.com 1.10,2013-02-24 17:01:00,
2013-02-24 17:16:00,42.0,35.0,30.39,NE,34,0.0,-999.0,76,-99.99,,,0.01,21,weatherlink.com 1.10,2013-02-24 17:16:00,
2013-02-24 17:31:00,41.1,34.0,30.39,North,355,2.0,-999.0,77,-99.99,,,0.01,7,weatherlink.com 1.10,2013-02-24 17:31:00,
2013-02-24 17:46:00,39.8,33.0,30.40,North,355,0.0,-999.0,78,-99.99,,,0.01,0,weatherlink.com 1.10,2013-02-24 17:46:00,
2013-02-24 18:01:00,38.8,33.0,30.40,North,355,0.0,-999.0,79,-99.99,,,0.01,0,weatherlink.com 1.10,2013-02-24 18:01:00,
2013-02-24 18:16:00,37.7,32.0,30.41,North,355,0.0,-999.0,79,-99.99,,,0.01,0,weatherlink.com 1.10,2013-02-24 18:16:00,
2013-02-24 18:31:00,36.7,31.0,30.41,North,355,0.0,-999.0,81,-99.99,,,0.01,0,weatherlink.com 1.10,2013-02-24 18:31:00,
2013-02-24 18:46:00,36.7,32.0,30.41,North,360,1.0,-999.0,83,-99.99,,,0.01,0,weatherlink.com 1.10,2013-02-24 18:46:00,
2013-02-24 19:01:00,37.0,32.0,30.41,North,360,0.0,-999.0,83,-99.99,,,0.01,0,weatherlink.com 1.10,2013-02-24 19:01:00,
2013-02-24 19:16:00,37.1,32.0,30.41,North,360,0.0,-999.0,82,-99.99,,,0.01,0,weatherlink.com 1.10,2013-02-24 19:16:00,
2013-02-24 19:31:00,37.4,32.0,30.41,North,360,2.0,-999.0,82,-99.99,,,0.01,0,weatherlink.com 1.10,2013-02-24 19:31:00,
2013-02-24 19:46:00,37.7,33.0,30.41,North,360,0.0,-999.0,82,-99.99,,,0.01,0,weatherlink.com 1.10,2013-02-24 19:46:00,
2013-02-24 20:01:00,37.9,33.0,30.42,ENE,59,0.0,-999.0,82,-99.99,,,0.01,0,weatherlink.com 1.10,2013-02-24 20:01:00,
2013-02-24 20:16:00,38.1,33.0,30.42,ENE,59,2.0,-999.0,82,-99.99,,,0.01,0,weatherlink.com 1.10,2013-02-24 20:16:00,
2013-02-24 20:31:00,38.0,34.0,30.42,ENE,59,0.0,-999.0,84,-99.99,,,0.01,0,weatherlink.com 1.10,2013-02-24 20:31:00,
2013-02-24 20:46:00,37.4,33.0,30.43,ENE,59,0.0,-999.0,84,-99.99,,,0.01,0,weatherlink.com 1.10,2013-02-24 20:46:00,
2013-02-24 21:01:00,37.3,33.0,30.42,ENE,59,0.0,-999.0,85,-99.99,,,0.01,0,weatherlink.com 1.10,2013-02-24 21:01:00,
2013-02-24 21:16:00,36.7,33.0,30.42,ENE,59,0.0,-999.0,85,-99.99,,,0.01,0,weatherlink.com 1.10,2013-02-24 21:16:00,
2013-02-24 21:31:00,35.6,32.0,30.43,ENE,59,0.0,-999.0,86,-99.99,,,0.01,0,weatherlink.com 1.10,2013-02-24 21:31:00,
2013-02-24 21:46:00,34.4,31.0,30.43,ENE,59,0.0,-999.0,86,-99.99,,,0.01,0,weatherlink.com 1.10,2013-02-24 21:46:00,
2013-02-24 22:01:00,33.3,30.0,30.43,ENE,59,0.0,-999.0,87,-99.99,,,0.01,0,weatherlink.com 1.10,2013-02-24 22:01:00,
2013-02-24 22:16:00,32.5,29.0,30.43,ENE,59,0.0,-999.0,88,-99.99,,,0.01,0,weatherlink.com 1.10,2013-02-24 22:16:00,
2013-02-24 22:31:00,32.2,30.0,30.44,ENE,59,0.0,-999.0,90,-99.99,,,0.01,0,weatherlink.com 1.10,2013-02-24 22:31:00,
2013-02-24 22:46:00,31.9,29.0,30.44,ENE,59,0.0,-999.0,90,-99.99,,,0.01,0,weatherlink.com 1.10,2013-02-24 22:46:00,
2013-02-24 23:01:00,31.8,30.0,30.44,ENE,59,0.0,-999.0,92,-99.99,,,0.01,0,weatherlink.com 1.10,2013-02-24 23:01:00,
2013-02-24 23:16:00,31.4,29.0,30.44,ENE,59,0.0,-999.0,92,-99.99,,,0.01,0,weatherlink.com 1.10,2013-02-24 23:16:00,
2013-02-24 23:31:00,31.3,29.0,30.44,ENE,59,0.0,-999.0,91,-99.99,,,0.01,0,weatherlink.com 1.10,2013-02-24 23:31:00,
2013-02-24 23:46:00,30.7,29.0,30.44,ENE,59,0.0,-999.0,92,-99.99,,,0.01,0,weatherlink.com 1.10,2013-02-24 23:46:00,